Starlink 30563

operational
NORAD ID: 58042 Int'l Des: 2023-156 Owner: SPXS Country: US Constellation: starlink
LEOCIRCULAR

Starlink 30563について

説明を読み込み中...

リアルタイム位置

3D地球を読み込み中...

次回通過

高度履歴

Altitude vs Time

uPlot chart will show altitude changes over time

軌道要素

1 58042U 23156Q 25259.12330255 -.00002693 00000-0 -78860-4 0 9995
2 58042 53.1591 166.6029 0001561 80.7270 279.3907 15.30188471109625
Epoch: Sep 16, 2025 • Age: 8 hours

現在のステータス

高度 484.5 km
速度 7.62 km/s
衛星直下点 -28.83°S, 14.27°W
打ち上げ日 Oct 9, 2023
運用期間 1.9 years
タイプ internet

技術仕様

分類 Payload
質量 730.00 kg
乾燥質量 700.00 kg
総質量 730.00 kg
長さ 0.30 m
直径 4.10 m
スパン 29.00 m
形状 Box + pan
製造者 SPXS
バスタイプ Starlink V2M
フェーズステータス In Orbit
所有者/国 SPXS/US

大規模コンステレーション

Loading constellations...